Tracking 25656 objects as of 22-May-2022
HD Live streaming from Space Station
objects crossing your sky now

TRANSIT 2A

Track TRANSIT 2A now!
10-day predictions
TRANSIT 2A is classified as:


NORAD ID: 45
Int'l Code: 1960-007A
Perigee: 605.0 km
Apogee: 967.2 km
Inclination: 66.7 °
Period: 100.4 minutes
Semi major axis: 7157 km
RCS: 0.4368 m2 (medium)
Launch date: June 22, 1960
Source: United States (US)
Launch site: AIR FORCE EASTERN TEST RANGE (AFETR)
aabbcc
Your satellite tracking list
Your tracking list is empty




NASA's NSSDC Master Catalog

Two Line Element Set (TLE):
1    45U 60007A   22141.81620731  .00000681  00000-0  19725-3 0  9992
2    45  66.6945 327.1823 0253047 165.2862 195.5785 14.33838170223537
Source of the keplerian elements: AFSPC